• In Österreich
  • Länderverzeichnis
  • Für 7 Tage
  • Wassertemperatur
  • Satellitenkarten
  • Wetterkarte
  • News
  • Widgets
  • user-avatar
    Anmelden

    Stündliche Wetter San Juan

    Heute, 20 Oktober, Freitag

    Zeit Temperatur Niederschläge Wind Luftdruck Luftfeuchtigkeit
    00:00 +22°C° 0 mm 3 m/S 701 mmHg 21%
    01:00 +21°C° 0 mm 3 m/S 701 mmHg 20%
    02:00 +21°C° 0 mm 3 m/S 701 mmHg 20%
    03:00 +21°C° 0 mm 3 m/S 700 mmHg 19%
    04:00 +20°C° 0 mm 3 m/S 700 mmHg 18%
    05:00 +23°C° 0 mm 2 m/S 701 mmHg 16%
    06:00 +24°C° 0 mm 2 m/S 701 mmHg 15%
    07:00 +26°C° 0 mm 2 m/S 701 mmHg 13%
    08:00 +27°C° 0 mm 2 m/S 701 mmHg 13%
    09:00 +29°C° 0 mm 3 m/S 701 mmHg 12%
    10:00 +30°C° 0 mm 4 m/S 702 mmHg 11%
    11:00 +32°C° 0 mm 4 m/S 701 mmHg 10%
    12:00 +33°C° 0 mm 5 m/S 701 mmHg 10%
    13:00 +34°C° 0 mm 6 m/S 701 mmHg 9%
    14:00 +33°C° 0 mm 7 m/S 701 mmHg 11%
    15:00 +32°C° 0 mm 8 m/S 701 mmHg 12%
    16:00 +32°C° 0 mm 9 m/S 701 mmHg 14%
    17:00 +28°C° 0 mm 9 m/S 702 mmHg 18%
    18:00 +26°C° 0 mm 8 m/S 703 mmHg 21%
    19:00 +22°C° 0 mm 8 m/S 704 mmHg 25%
    20:00 +21°C° 0 mm 8 m/S 705 mmHg 27%
    21:00 +20°C° 0 mm 7 m/S 705 mmHg 30%
    22:00 +19°C° 0 mm 6 m/S 706 mmHg 32%
    23:00 +17°C° 0 mm 6 m/S 706 mmHg 35%

    Morgen, 21 Oktober, Samstag

    Zeit Temperatur Niederschläge Wind Luftdruck Luftfeuchtigkeit
    00:00 +16°C° 0 mm 6 m/S 706 mmHg 37%
    01:00 +15°C° 0 mm 6 m/S 707 mmHg 40%
    02:00 +15°C° 0 mm 5 m/S 707 mmHg 41%
    03:00 +14°C° 0 mm 5 m/S 707 mmHg 42%
    04:00 +14°C° 0 mm 4 m/S 707 mmHg 42%
    05:00 +14°C° 0 mm 4 m/S 708 mmHg 39%
    06:00 +15°C° 0 mm 4 m/S 708 mmHg 36%
    07:00 +17°C° 0 mm 4 m/S 709 mmHg 33%
    08:00 +18°C° 0 mm 4 m/S 709 mmHg 30%
    09:00 +19°C° 0 mm 4 m/S 709 mmHg 26%
    10:00 +21°C° 0 mm 4 m/S 709 mmHg 23%
    11:00 +22°C° 0 mm 4 m/S 709 mmHg 21%
    12:00 +23°C° 0 mm 4 m/S 709 mmHg 20%
    13:00 +25°C° 0 mm 3 m/S 708 mmHg 18%
    14:00 +25°C° 0 mm 4 m/S 708 mmHg 18%
    15:00 +25°C° 0 mm 4 m/S 708 mmHg 18%
    16:00 +25°C° 0 mm 4 m/S 708 mmHg 18%
    17:00 +23°C° 0 mm 4 m/S 709 mmHg 19%
    18:00 +23°C° 0 mm 4 m/S 710 mmHg 20%
    19:00 +22°C° 0 mm 4 m/S 710 mmHg 21%
    20:00 +21°C° 0 mm 4 m/S 711 mmHg 23%
    21:00 +21°C° 0 mm 4 m/S 711 mmHg 24%
    22:00 +20°C° 0 mm 4 m/S 712 mmHg 25%
    23:00 +19°C° 0 mm 3 m/S 712 mmHg 27%

    übermorgen, 22 Oktober, Sonntag

    Zeit Temperatur Niederschläge Wind Luftdruck Luftfeuchtigkeit
    00:00 +18°C° 0 mm 3 m/S 711 mmHg 29%
    01:00 +18°C° 0 mm 2 m/S 711 mmHg 31%
    02:00 +17°C° 0 mm 2 m/S 710 mmHg 33%
    03:00 +16°C° 0 mm 2 m/S 710 mmHg 34%
    04:00 +16°C° 0 mm 1 m/S 710 mmHg 36%
    05:00 +18°C° 0 mm 1 m/S 710 mmHg 34%
    06:00 +19°C° 0 mm 1 m/S 710 mmHg 33%
    07:00 +20°C° 0 mm 1 m/S 710 mmHg 32%
    08:00 +21°C° 0 mm 2 m/S 709 mmHg 31%
    09:00 +22°C° 0 mm 3 m/S 709 mmHg 29%
    10:00 +25°C° 0 mm 4 m/S 709 mmHg 28%
    11:00 +26°C° 0 mm 4 m/S 708 mmHg 25%
    12:00 +28°C° 0 mm 4 m/S 707 mmHg 22%
    13:00 +29°C° 0 mm 5 m/S 706 mmHg 19%
    14:00 +29°C° 0 mm 4 m/S 705 mmHg 19%
    15:00 +29°C° 0 mm 4 m/S 705 mmHg 18%
    16:00 +29°C° 0 mm 4 m/S 704 mmHg 17%
    17:00 +28°C° 0 mm 4 m/S 704 mmHg 20%
    18:00 +26°C° 0 mm 3 m/S 705 mmHg 22%
    19:00 +25°C° 0 mm 3 m/S 705 mmHg 25%
    20:00 +24°C° 0 mm 3 m/S 705 mmHg 26%
    21:00 +22°C° 0 mm 3 m/S 705 mmHg 27%
    22:00 +22°C° 0 mm 3 m/S 706 mmHg 29%
    23:00 +21°C° 0 mm 2 m/S 705 mmHg 30%

    23 Oktober, Montag

    Zeit Temperatur Niederschläge Wind Luftdruck Luftfeuchtigkeit
    00:00 +20°C° 0 mm 2 m/S 705 mmHg 32%
    01:00 +20°C° 0 mm 2 m/S 704 mmHg 34%
    02:00 +19°C° 0 mm 2 m/S 704 mmHg 35%
    03:00 +19°C° 0 mm 2 m/S 704 mmHg 37%
    04:00 +19°C° 0 mm 1 m/S 704 mmHg 38%
    05:00 +21°C° 0 mm 1 m/S 705 mmHg 35%
    06:00 +21°C° 0 mm 2 m/S 705 mmHg 31%
    07:00 +24°C° 0 mm 2 m/S 705 mmHg 28%
    08:00 +25°C° 0 mm 2 m/S 705 mmHg 25%
    09:00 +27°C° 0 mm 2 m/S 705 mmHg 21%
    10:00 +28°C° 0 mm 2 m/S 705 mmHg 18%
    11:00 +29°C° 0 mm 3 m/S 704 mmHg 16%
    12:00 +30°C° 0 mm 3 m/S 704 mmHg 14%
    13:00 +31°C° 0 mm 3 m/S 703 mmHg 12%
    14:00 +31°C° 0 mm 3 m/S 703 mmHg 13%
    15:00 +32°C° 0 mm 4 m/S 703 mmHg 13%
    16:00 +32°C° 0 mm 4 m/S 702 mmHg 13%
    17:00 +30°C° 0 mm 3 m/S 703 mmHg 16%
    18:00 +28°C° 0 mm 2 m/S 703 mmHg 18%
    19:00 +27°C° 0 mm 2 m/S 704 mmHg 21%
    20:00 +26°C° 0 mm 2 m/S 704 mmHg 23%
    21:00 +25°C° 0 mm 2 m/S 704 mmHg 24%
    22:00 +24°C° 0 mm 2 m/S 704 mmHg 25%
    23:00 +24°C° 0 mm 2 m/S 704 mmHg 27%

    24 Oktober, Dienstag

    Zeit Temperatur Niederschläge Wind Luftdruck Luftfeuchtigkeit
    00:00 +23°C° 0 mm 2 m/S 704 mmHg 28%
    01:00 +23°C° 0 mm 2 m/S 704 mmHg 30%
    02:00 +21°C° 0 mm 2 m/S 704 mmHg 31%
    03:00 +21°C° 0 mm 2 m/S 704 mmHg 32%
    04:00 +20°C° 0 mm 2 m/S 705 mmHg 33%
    05:00 +23°C° 0 mm 2 m/S 705 mmHg 30%
    06:00 +24°C° 0 mm 1 m/S 706 mmHg 27%
    07:00 +26°C° 0 mm 1 m/S 706 mmHg 25%
    08:00 +27°C° 0 mm 2 m/S 706 mmHg 23%
    09:00 +28°C° 0 mm 3 m/S 707 mmHg 21%
    10:00 +30°C° 0 mm 4 m/S 707 mmHg 18%
    11:00 +30°C° 0 mm 5 m/S 706 mmHg 18%
    12:00 +32°C° 0 mm 5 m/S 705 mmHg 18%
    13:00 +32°C° 0 mm 5 m/S 705 mmHg 18%
    14:00 +32°C° 0 mm 4 m/S 704 mmHg 18%
    15:00 +32°C° 0 mm 4 m/S 704 mmHg 18%
    16:00 +32°C° 0 mm 4 m/S 704 mmHg 19%
    17:00 +30°C° 0 mm 4 m/S 704 mmHg 21%
    18:00 +29°C° 0 mm 4 m/S 705 mmHg 24%
    19:00 +28°C° 0 mm 4 m/S 705 mmHg 26%
    20:00 +27°C° 0 mm 3 m/S 705 mmHg 27%
    21:00 +26°C° 0 mm 3 m/S 705 mmHg 28%
    22:00 +25°C° 0 mm 2 m/S 706 mmHg 29%
    23:00 +25°C° 0 mm 2 m/S 705 mmHg 31%

    25 Oktober, Mittwoch

    Zeit Temperatur Niederschläge Wind Luftdruck Luftfeuchtigkeit
    00:00 +24°C° 0 mm 2 m/S 705 mmHg 33%
    01:00 +23°C° 0 mm 2 m/S 704 mmHg 34%
    02:00 +21°C° 0 mm 2 m/S 704 mmHg 37%
    03:00 +22°C° 0 mm 1 m/S 704 mmHg 40%
    04:00 +21°C° 0 mm 1 m/S 704 mmHg 42%
    05:00 +22°C° 0 mm 1 m/S 704 mmHg 41%
    06:00 +23°C° 0 mm 1 m/S 705 mmHg 40%
    07:00 +24°C° 0 mm 1 m/S 705 mmHg 39%
    08:00 +25°C° 0 mm 1 m/S 705 mmHg 35%
    09:00 +27°C° 0 mm 2 m/S 704 mmHg 32%
    10:00 +28°C° 0 mm 2 m/S 704 mmHg 28%
    11:00 +29°C° 0 mm 2 m/S 703 mmHg 26%
    12:00 +30°C° 0 mm 2 m/S 702 mmHg 23%
    13:00 +31°C° 0 mm 2 m/S 702 mmHg 20%
    14:00 +31°C° 0,2 mm 2 m/S 701 mmHg 20%
    15:00 +31°C° 0,2 mm 2 m/S 701 mmHg 21%
    16:00 +31°C° 0,2 mm 2 m/S 701 mmHg 21%
    17:00 +30°C° 0,6 mm 2 m/S 701 mmHg 23%
    18:00 +29°C° 0,6 mm 2 m/S 702 mmHg 26%
    19:00 +28°C° 0,6 mm 2 m/S 702 mmHg 29%
    20:00 +27°C° 0,4 mm 2 m/S 703 mmHg 32%
    21:00 +26°C° 0,4 mm 2 m/S 703 mmHg 34%
    22:00 +26°C° 0,4 mm 2 m/S 703 mmHg 37%
    23:00 +25°C° 0 mm 2 m/S 703 mmHg 41%
    Mehr zeigen